Weather History for Mobridge, SD

Change the Weather History Date:

Friday, July 5, 2013

  Actual Average Record
Temperature  
Mean Temperature 71 °F 71 °F  
Max Temperature 85 °F 84 °F 109 °F (1936)
Min Temperature 57 °F 59 °F 38 °F (1915)
Degree Days  
Heating Degree Days 0 1  
Month to date heating degree days 0 5  
Since 1 June heating degree days 68 80  
Since 1 July heating degree days 0 5  
Cooling Degree Days 6 7  
Month to date cooling degree days 30 33  
Year to date cooling degree days 156 148  
Since 1 June cooling degree days 141 132  
Growing Degree Days 20 (Base 50)    
Moisture  
Dew Point 60 °F    
Average Humidity 67    
Maximum Humidity 93    
Minimum Humidity 40    
Precipitation  
Precipitation 0.15 in 0.07 in 1.46 in (1914)
Month to date precipitation 0.17 0.39  
Year to date precipitation 9.17 9.57  
Sea Level Pressure  
Sea Level Pressure 29.74 in    
Wind  
Wind Speed 5 mph (East)    
Max Wind Speed 16 mph    
Max Gust Speed 20 mph    
Visibility 10 miles    
Events Rain    
T = Trace of Precipitation, MM = Missing Value Source: NWS Daily Summary

Daily Weather History Graph

Daily Weather History Graph

Search for Another Location

Airport:

Trip Planner

Search our weather history database for the weather conditions in past years. The results will help you decide how hot, cold, wet, or windy it might be!

Date:

Astronomy

Jul. 05, 2013 Rise Set
Actual Time 5:59 AM CDT 9:32 PM CDT
Civil Twilight 5:21 AM CDT 10:10 PM CDT
Nautical Twilight 4:32 AM CDT 10:59 PM CDT
Astronomical Twilight 3:26 AM CDT 12:05 AM CDT
Moon 4:03 AM CDT (7/5) 7:26 PM CDT (7/5)
Length of Visible Light 16h 48m
Length of Day
15h 33m
Waning Crescent, 6% of the Moon is Illuminated
Jul 5
Waning Crescent
Jul 8
New
Jul 15
First Quarter
Jul 22
Full
Jul 29
Last Quarter

Hourly Weather History & Observations

Time (CDT) Temp. Heat Index Dew Point Humidity Pressure Visibility Wind Dir Wind Speed Gust Speed Precip Events Conditions
12:52 AM 63.0 °F - 54.0 °F 72% 29.77 in 10.0 mi North 3.5 mph - N/A   Clear
1:52 AM 64.0 °F - 59.0 °F 84% 29.77 in 10.0 mi NNW 4.6 mph - N/A   Clear
2:52 AM 62.1 °F - 57.9 °F 86% 29.76 in 10.0 mi Calm Calm - N/A   Clear
3:52 AM 60.1 °F - 57.0 °F 90% 29.74 in 10.0 mi Calm Calm - N/A   Clear
4:52 AM 60.1 °F - 55.9 °F 86% 29.74 in 10.0 mi Calm Calm - N/A   Clear
5:52 AM 57.0 °F - 55.0 °F 93% 29.74 in 10.0 mi Calm Calm - N/A   Clear
6:52 AM 63.0 °F - 57.9 °F 84% 29.75 in 10.0 mi Calm Calm - N/A   Clear
7:52 AM 68.0 °F - 57.9 °F 70% 29.74 in 10.0 mi Calm Calm - N/A   Clear
8:52 AM 72.0 °F - 57.9 °F 61% 29.76 in 10.0 mi Calm Calm - N/A   Clear
9:52 AM 75.9 °F - 57.0 °F 52% 29.75 in 10.0 mi East 4.6 mph - N/A   Partly Cloudy
10:52 AM 81.0 °F 81.1 °F 57.9 °F 45% 29.73 in 10.0 mi East 10.4 mph - N/A   Clear
11:52 AM 84.0 °F 83.5 °F 57.9 °F 41% 29.74 in 10.0 mi SSE 8.1 mph - N/A   Scattered Clouds
12:52 PM 81.0 °F 81.9 °F 62.1 °F 52% 29.75 in 10.0 mi NE 9.2 mph - 0.00 in   Mostly Cloudy
1:52 PM 80.1 °F 80.9 °F 60.1 °F 50% 29.76 in 10.0 mi Calm Calm - 0.00 in Rain Light Rain
2:52 PM 71.1 °F - 66.9 °F 87% 29.78 in 10.0 mi NE 10.4 mph - 0.01 in Rain Light Rain
3:52 PM 71.1 °F - 64.9 °F 81% 29.78 in 10.0 mi NE 10.4 mph - 0.00 in Rain Light Rain
4:52 PM 73.0 °F - 64.9 °F 76% 29.77 in 10.0 mi ENE 10.4 mph - 0.00 in   Overcast
5:52 PM 73.0 °F - 64.9 °F 76% 29.75 in 10.0 mi East 11.5 mph - N/A   Overcast
6:52 PM 75.0 °F - 64.9 °F 71% 29.71 in 10.0 mi East 10.4 mph - 0.00 in   Mostly Cloudy
7:52 PM 75.9 °F - 61.0 °F 60% 29.70 in 10.0 mi ESE 8.1 mph - N/A   Partly Cloudy
8:52 PM 73.0 °F - 62.1 °F 68% 29.70 in 10.0 mi SSE 5.8 mph - N/A   Overcast
9:52 PM 70.0 °F - 62.1 °F 76% 29.72 in 10.0 mi East 5.8 mph - 0.00 in   Overcast
10:52 PM 72.0 °F - 60.1 °F 66% 29.71 in 10.0 mi East 9.2 mph - N/A   Overcast
11:52 PM 73.9 °F - 60.1 °F 62% 29.71 in 10.0 mi East 9.2 mph - N/A   Overcast